AirNav   Bose A20 Aviation Headset
 
 855 users online  

W96 New Kent County Airport
Quinton, Virginia, USA

GOING TO QUINTON?


FAA INFORMATION EFFECTIVE 11 OCTOBER 2018

Location

FAA Identifier: W96
Lat/Long: 37-30-12.3469N / 077-07-35.6148W
37-30.205782N / 077-07.593580W
37.5034297 / -77.1265597
(estimated)
Elevation: 120.9 ft. / 36.9 m (surveyed)
Variation: 10W (2005)
From city: 8 miles W of QUINTON, VA
Time zone: UTC -4 (UTC -5 during Standard Time)
Zip code: 23141

Airport Operations

Airport use: Open to the public
Activation date: 06/1938
Control tower: no
ARTCC: WASHINGTON CENTER
FSS: LEESBURG FLIGHT SERVICE STATION
NOTAMs facility: DCA (NOTAM-D service available)
Attendance: 0900-1700
Pattern altitude: 920.9 ft. MSL
Wind indicator: lighted
Segmented circle: yes
Lights: ACTVT REIL RY 11/29; MIRL RY 11/29 - CTAF.
Beacon: white-green (lighted land airport)
ROTG BCN NOT VISIBLE WHEN APPROACHING FM THE NORTH. Operates sunset to sunrise.

Airport Communications

CTAF/UNICOM: 122.8
WX AWOS-3: 119.875 (804-932-8863)
POTOMAC APPROACH: 126.4
POTOMAC DEPARTURE: 126.4
WX ASOS at RIC (9 nm W): PHONE 804-236-1091
WX AWOS-3 at FYJ (17 nm E): 132.825 (804-785-2307)
WX ASOS at OFP (19 nm NW): 119.025 (804-752-2902)
WX AWOS-3PT at FCI (20 nm W): 128.625 (804-271-8426)

Nearby radio navigation aids

VOR radial/distance  VOR name  Freq  Var
RICr099/9.2RICHMOND VORTAC114.1009W
HPWr003/10.5HOPEWELL VORTAC112.0006W
HCMr286/20.0HARCUM VORTAC108.8007W
FAKr099/33.4FLAT ROCK VORTAC113.3006W

 
NDB name  Hdg/Dist  Freq  Var  ID
PETERSBURG052/31.028408WPTB .--. - -...
WAKEFIELD000/31.827411WAKQ .- -.- --.-

Airport Services

Fuel available: 100LL
FUEL AVBL 24 HRS, CREDIT CARD REQUIRED WHEN UNATENDED.
Parking: hangars and tiedowns
Airframe service: MINOR
Powerplant service: MINOR
Bottled oxygen: NONE
Bulk oxygen: NONE

Runway Information

Runway 11/29

Dimensions: 3603 x 75 ft. / 1098 x 23 m
Surface: asphalt, in good condition
Weight bearing capacity: 
Single wheel: 12.5
Runway edge lights: medium intensity
Gradient: W.
RUNWAY 11  RUNWAY 29
Latitude: 37-30.237103N37-30.174403N
Longitude: 077-07.964070W077-07.223103W
Elevation: 120.9 ft.107.7 ft.
Gradient: 0.4% UP
Traffic pattern: leftleft
Runway heading: 106 magnetic, 096 true286 magnetic, 276 true
Markings: nonprecision, in fair conditionnonprecision, in fair condition
Visual slope indicator: 2-light PAPI on right (4.00 degrees glide path)2-light PAPI on left (4.00 degrees glide path)
Runway end identifier lights: yes
REIL RY 11 OTS.
yes
REIL RY 29 OTS.
Touchdown point: yes, no lightsyes, no lights
Obstructions: 99 ft. trees, 1436 ft. from runway, 389 ft. right of centerline, 12:1 slope to clear
RY 11 - 18 FT TREE 174 FT R OF THLD ON APRCH.
20 ft. trees, 558 ft. from runway, 266 ft. right of centerline, 17:1 slope to clear
RY 29 - 4 FT TREE 71 FT R OF THLD ON APRCH.

Airport Ownership and Management from official FAA records

Ownership: Publicly-owned
Owner: COUNTY OF NEW KENT
P. O. BOX 150, 12007 COURT HOUSE CIRCLE
NEW KENT, VA 23124
Phone 804-966-9683
Manager: DUANE GOSS
6901 TERMINAL RD
QUINTON, VA 23141-2427
Phone 804-932-3984

Airport Operational Statistics

Aircraft based on the field: 40
Single engine airplanes: 35
Multi engine airplanes: 2
Ultralights: 3
    
Aircraft operations: avg 44/day *
69% transient general aviation
24% local general aviation
7% air taxi
* for 12-month period ending 31 December 2016

Additional Remarks

DEER ON & INVOF ARPT.
ULTRALIGHT ACTIVITY ON & INVOF ARPT.
FOR CD CTC POTOMAC APCH AT 866-640-4124.

Instrument Procedures

NOTE: All procedures below are presented as PDF files. If you need a reader for these files, you should download the free Adobe Reader.

NOT FOR NAVIGATION. Please procure official charts for flight.
FAA instrument procedures published for use from 11 October 2018 at 0901Z to 8 November 2018 at 0900Z.

 
IAPs - Instrument Approach Procedures
RNAV (GPS) RWY 11   download (203KB)
RNAV (GPS) RWY 29   download (231KB)
VOR-A   download (207KB)
NOTE: Special Take-Off Minimums/Departure Procedures apply   download (155KB)

Other nearby airports with instrument procedures:

KRIC - Richmond International Airport (9 nm W)
KFYJ - Middle Peninsula Regional Airport (17 nm E)
KOFP - Hanover County Municipal Airport (19 nm NW)
KFCI - Richmond Executive Airport-Chesterfield County (20 nm W)
KXSA - Tappahannock-Essex County Airport (24 nm NE)
 
Loc | Ops | Rwys | IFR | FBO | Links
Com | Nav | Svcs | Stats | Notes


 
Area around W96 (New Kent County Airport)
 
Road maps at: MapQuest Bing Google
 
Aerial photo
WARNING: Photo may not be current or correct
Aerial photo of W96 (New Kent County Airport)
Do you have a better or more recent aerial photo of New Kent County Airport that you would like to share? If so, please send us your photo.

 
Sectional chart

 
Airport distance calculator
Flying to New Kent County Airport? Find the distance to fly.

From to W96

Sunrise and sunset
Times for 20-Oct-2018
 Local
(UTC-4)
 Zulu
(UTC)
Morning civil twilight06:5610:56
Sunrise07:2211:22
Sunset18:2422:24
Evening civil twilight18:5122:51

Current date and time
Zulu (UTC)  21-Oct-2018 00:23:21
Local (UTC-4)  20-Oct-2018 20:23:21
 
METAR
KW96 202355Z AUTO 00000KT 10SM CLR 14/14 A2972 RMK AO1 T01400140 10181 20140
KRIC 
9nm W 
202354Z 22004KT 10SM CLR 14/12 A2973 RMK AO2 SLP070 T01390117 10194 20133 53009
KFYJ 
17nm E 
202355Z AUTO 22004KT 10SM CLR 15/14 A2973 RMK AO1 T01510143 10184 20151
KOFP 
19nm NW 
202354Z AUTO 00000KT 10SM CLR 12/11 A2974 RMK AO2 SLP069 T01170111 10194 20117 53008
KFCI 
20nm W 
202356Z AUTO 00000KT 10SM CLR 12/12 A2974 RMK AO2 SLP088 T01220122 10189 20122 53009
TAF
KRIC 
9nm W 
201809Z 2018/2118 25009KT P6SM FEW035 BKN050 BKN150 FM202300 26008KT P6SM FEW150 FM210400 28012KT P6SM FEW200 FM210700 30015G26KT P6SM FEW200 FM211500 33016G27KT P6SM SKC
NOTAMs
Click for the latest NOTAMs
NOTAMs are issued by the DoD/FAA and will open in a separate window not controlled by AirNav.

 

 
 

FBO, Fuel Providers, and Aircraft Ground Support

  
 Business Name 
 
 Contact 
 
 Services / Description 
 
Fuel Prices
 
Comments
  
 New Kent County Airport
UNICOM 122.80
804-932-3984
[web site]
[email]
Tie Downs, Enclosed Hangars and Open Bay Hangars available...Call for pricing.

More info about New Kent County Airport
independent
100LL
SS $4.70 
 Updated 09-Oct-2018
 
   2 read write
SS=Self service
Update Fuel Prices
 

Would you like to see your business listed on this page?

 If your business provides an interesting product or service to pilots, flight crews, aircraft, or users of the New Kent County Airport, you should consider listing it here.  To start the listing process, click on the button below
 
Add a business
 

Other Pages about New Kent County Airport

www.co.newkent.state.va.us/index.aspx?NID=177
www.flyvirginia.com/...
 
Update a link
 
Copyright © AirNav, LLC. All rights reserved. Privacy Policy  Contact